Location: *
(32.3300°N, 34.8500°E)
Time: 12:11:43
(UTC+00:00)

Cosmos 1610 Rocket - Pass Details

Date: 22 October 2019
Orbit: 953 x 1002 km, 82.9° (Epoch: 20 November)

Event Time Altitude Azimuth Distance (km) Brightness Sun altitude
Rises 02:08:06 0° 194° (SSW) 3,657 7.4 -22.0°
Reaches altitude 10° 02:10:37 10° 198° (SSW) 2,720 6.6 -21.5°
Maximum altitude 02:16:46 61° 278° (W) 1,114 4.5 -20.2°
Drops below altitude 10° 02:23:03 10° 358° (N) 2,765 6.8 -18.9°
Sets 02:25:38 0° 2° (N) 3,723 7.6 -18.3°
